EW8689 Weather Reports


time (UTC)temp
C
wind
direction
speed
KPH
gust
KPH
rain 1hr
cm
rain 24hr
cm
rain mn
cm
humidity
%
barometer
mb
20260505061512 12 0.0 0.0 0.03 1.55 0.99 96 1007.7
20260505060008 12 0.0 0.0 0.03 1.55 0.99 96 1007.6
20260505054503 12 0.0 0.0 0.03 1.83 0.99 96 1007.6
20260505053100 12 0.0 0.0 0.03 1.83 0.99 95 1007.6
20260505051612 12 0.0 0.0 0.00 1.83 0.97 95 1007.6
20260505041540 12 0.0 0.0 0.08 1.93 0.97 95 1008.0
20260505040033 12 0.0 0.0 0.08 1.91 0.91 95 1008.2
20260505034530 12 0.0 0.0 0.08 2.13 0.91 95 1008.3
20260505033028 12 0.0 0.0 0.15 2.11 0.89 95 1008.4
20260505031520 12 0.0 0.0 0.20 2.11 0.89 95 1008.5
20260505030015 12 0.0 0.0 0.20 2.06 0.84 95 1008.6
20260505024511 12 0.0 0.0 0.23 2.03 0.81 95 1008.8
20260505023006 12 0.0 0.0 0.18 1.98 0.76 95 1008.9
20260505021603 12 0.0 0.0 0.15 1.91 0.69 95 1008.8
20260505020105 12 0.0 0.0 0.13 1.85 0.64 95 1008.7
20260505014555 12 0.0 0.0 0.10 1.83 0.61 95 1008.9
20260505013049 12 0.0 0.0 0.08 1.80 0.58 94 1009.1
20260505011545 11 0.0 0.0 0.05 1.75 0.53 94 1009.2
20260505010048 11 0.0 0.0 0.05 1.75 0.51 94 1009.4
20260505004536 12 0.0 0.0 0.08 1.73 0.51 94 1009.4
20260505003031 12 0.0 0.0 0.13 1.73 0.51 94 1009.5
20260505001527 12 0.0 0.0 0.18 1.73 0.51 94 1009.6
20260505000023 12 0.0 0.0 0.23 1.68 0.46 94 1009.7
20260504234521 12 0.0 0.0 0.25 1.63 0.41 94 1009.9
20260504233014 12 0.0 0.0 0.28 1.57 0.36 94 1009.9
20260504231509 12 0.0 0.0 0.25 1.52 0.30 94 1010.1
20260504230006 12 0.0 0.0 0.20 1.42 0.20 93 1010.1
20260504224501 12 0.0 0.0 0.18 1.37 0.15 93 1010.1
20260504223057 12 0.0 0.0 0.13 1.30 0.08 93 1010.1
20260504221553 12 0.0 0.0 0.10 1.27 0.05 93 1010.1
20260504220049 12 0.0 0.0 0.05 1.22 0.00 93 1010.3
20260504214553 12 0.0 0.0 0.03 1.17 1.17 92 1010.4
20260504213040 12 0.0 0.0 0.03 1.17 1.17 92 1010.4
20260504211538 12 0.0 0.0 0.00 1.17 1.17 92 1010.4
20260504210035 12 0.0 0.0 0.00 1.17 1.17 92 1010.4
20260504204526 12 0.0 0.0 0.00 1.17 1.17 92 1010.5
20260504203029 12 0.0 0.0 0.00 1.17 1.17 92 1010.6
20260504201518 12 0.0 0.0 0.00 1.17 1.17 91 1010.6
20260504200014 12 0.0 0.0 0.00 1.17 1.17 91 1010.5
20260504194509 12 0.0 0.0 0.00 1.17 1.17 91 1010.5
20260504193013 12 0.0 0.0 0.00 1.17 1.17 91 1010.5
20260504191506 12 0.0 0.0 0.00 1.17 1.17 91 1010.6
20260504190128 12 0.0 0.0 0.00 1.17 1.17 90 1010.6
20260504184552 12 0.0 0.0 0.00 1.17 1.17 90 1010.6
20260504183048 12 0.0 0.0 0.00 1.17 1.17 90 1010.7
20260504181546 13 0.0 0.0 0.00 1.17 1.17 90 1010.8
20260504180040 13 0.0 0.0 0.00 1.17 1.17 90 1010.8
20260504174535 13 0.0 0.0 0.00 1.17 1.17 90 1010.7
20260504173032 13 0.0 0.0 0.00 1.17 1.17 90 1010.8
20260504171526 13 0.0 0.0 0.00 1.17 1.17 90 1010.9
20260504081504 11 0.0 0.0 0.00 0.84 0.79 93 1013.1